Total_Precipitation_Accumulation
0.00 0.00 0.01 0.01 0.02 0.02 0.05 0.11 0.23 0.27 0.20 0.29 0.38 0.60 0.70 0.82 1.02 1.02 0.88 0.93 1.23 1.43 1.71 2.17 2.72 3.56 4.64 5.54 5.82 5.30 4.79 4.44 4.01 3.59 3.02 2.65 2.58 2.46 2.17 1.90 1.64 1.52 1.44 1.50
0.00 0.02 0.02 0.02 0.02 0.04 0.07 0.10 0.21 0.27 0.18 0.22 0.38 0.71 1.02 1.00 0.93 0.89 0.95 0.95 1.05 1.43 1.88 2.59 3.62 4.21 4.44 4.57 4.33 3.99 3.72 3.50 3.04 2.67 2.43 2.18 2.14 1.94 1.75 1.65 1.61 1.35 1.25 1.29
0.01 0.03 0.02 0.02 0.03 0.09 0.11 0.12 0.20 0.25 0.16 0.17 0.38 0.89 1.18 1.17 0.95 0.81 0.86 0.85 1.04 1.47 2.06 2.86 3.42 3.55 3.27 2.95 2.85 2.80 2.86 2.62 2.48 2.43 2.32 2.21 2.17 1.94 1.68 1.56 1.51 1.29 1.11 1.12
0.01 0.02 0.02 0.02 0.04 0.08 0.09 0.08 0.07 0.10 0.16 0.35 0.54 1.11 1.31 1.09 1.06 0.89 0.88 0.89 0.94 1.22 1.57 1.99 2.23 2.12 2.24 2.38 2.39 2.50 2.59 2.34 2.32 2.26 1.97 1.87 1.75 1.63 1.47 1.41 1.41 1.48 1.24 1.08
0.02 0.03 0.02 0.02 0.03 0.04 0.04 0.04 0.05 0.11 0.23 0.43 0.63 0.89 1.06 0.90 1.09 0.88 0.74 0.73 0.72 0.88 0.96 1.07 1.20 1.35 1.57 1.68 1.84 2.14 2.38 2.32 2.16 1.99 1.92 1.95 1.80 1.74 1.71 1.72 1.66 1.61 1.48 1.25
0.03 0.04 0.03 0.03 0.02 0.03 0.04 0.06 0.13 0.23 0.40 0.90 0.86 0.84 1.09 1.03 1.09 0.85 0.66 0.58 0.63 0.75 0.83 0.86 0.92 1.05 1.22 1.35 1.52 1.77 2.07 2.20 2.13 1.97 1.87 1.88 1.90 1.83 1.74 1.72 1.68 1.50 1.40 1.32
0.09 0.07 0.05 0.03 0.03 0.05 0.06 0.08 0.24 0.58 0.99 1.16 0.74 0.82 1.08 0.84 0.76 0.63 0.42 0.41 0.52 0.72 0.85 0.92 0.86 0.83 0.90 1.05 1.20 1.30 1.47 1.73 1.85 1.81 1.78 1.77 1.86 1.75 1.58 1.48 1.39 1.33 1.17 1.08
0.14 0.12 0.06 0.04 0.05 0.06 0.05 0.04 0.11 0.22 0.34 0.53 0.72 1.09 1.21 0.86 0.58 0.35 0.26 0.35 0.53 0.67 0.72 0.75 0.74 0.69 0.68 0.75 0.93 1.05 1.23 1.41 1.61 1.62 1.60 1.59 1.63 1.57 1.46 1.45 1.23 1.16 1.11 1.05
0.05 0.05 0.04 0.04 0.05 0.06 0.05 0.03 0.04 0.07 0.12 0.33 0.71 1.02 0.97 0.76 0.56 0.39 0.32 0.35 0.45 0.49 0.52 0.62 0.67 0.73 0.70 0.68 0.78 0.90 1.11 1.29 1.47 1.58 1.62 1.54 1.53 1.53 1.51 1.45 1.28 1.12 1.21 1.13
0.02 0.02 0.04 0.05 0.05 0.06 0.05 0.05 0.04 0.05 0.11 0.25 0.54 0.96 1.15 0.94 0.70 0.51 0.43 0.42 0.49 0.50 0.52 0.69 0.80 0.74 0.62 0.53 0.60 0.74 0.91 1.14 1.29 1.45 1.48 1.38 1.54 1.52 1.52 1.45 1.33 1.20 1.18 1.18
0.02 0.02 0.05 0.05 0.07 0.08 0.07 0.06 0.06 0.05 0.08 0.14 0.38 0.61 0.59 0.55 0.46 0.43 0.48 0.47 0.38 0.43 0.53 0.70 0.85 0.79 0.59 0.48 0.49 0.56 0.73 0.91 1.02 1.13 1.24 1.24 1.31 1.30 1.33 1.37 1.35 1.31 1.29 1.26
0.02 0.02 0.03 0.06 0.09 0.08 0.09 0.09 0.09 0.08 0.08 0.09 0.18 0.37 0.32 0.35 0.37 0.39 0.50 0.56 0.50 0.50 0.57 0.54 0.64 0.75 0.68 0.57 0.45 0.50 0.65 0.77 0.84 0.92 0.95 1.00 1.08 1.13 1.13 1.15 1.24 1.31 1.27 1.21
0.03 0.02 0.03 0.11 0.17 0.15 0.10 0.08 0.09 0.10 0.09 0.08 0.20 0.41 0.34 0.29 0.38 0.38 0.42 0.64 0.74 0.47 0.40 0.42 0.51 0.58 0.65 0.59 0.52 0.59 0.69 0.76 0.83 0.81 0.84 0.90 0.96 0.98 0.99 1.04 1.14 1.24 1.28 1.29
0.03 0.02 0.03 0.10 0.19 0.20 0.16 0.11 0.11 0.10 0.07 0.07 0.13 0.34 0.34 0.33 0.38 0.52 0.58 0.64 0.51 0.38 0.35 0.34 0.43 0.58 0.65 0.66 0.60 0.60 0.70 0.87 0.92 0.88 0.97 1.07 1.10 1.10 1.10 1.12 1.19 1.28 1.34 1.34
0.03 0.02 0.02 0.03 0.07 0.12 0.15 0.15 0.12 0.08 0.05 0.08 0.11 0.21 0.26 0.35 0.41 0.45 0.45 0.43 0.41 0.42 0.38 0.37 0.45 0.62 0.71 0.84 0.85 0.78 0.75 0.86 1.00 1.10 1.19 1.35 1.47 1.48 1.38 1.37 1.45 1.52 1.56 1.56
0.03 0.03 0.03 0.03 0.06 0.10 0.12 0.14 0.10 0.07 0.06 0.06 0.08 0.15 0.21 0.34 0.36 0.41 0.38 0.36 0.40 0.44 0.42 0.40 0.49 0.65 0.67 0.70 0.76 0.76 0.77 0.81 0.85 0.96 1.07 1.25 1.42 1.50 1.49 1.52 1.62 1.69 1.70 1.78
0.07 0.06 0.05 0.04 0.07 0.09 0.17 0.13 0.09 0.08 0.07 0.07 0.11 0.15 0.20 0.29 0.40 0.49 0.51 0.54 0.53 0.43 0.38 0.42 0.49 0.57 0.66 0.63 0.66 0.76 0.81 0.89 0.97 1.11 1.25 1.33 1.43 1.53 1.57 1.55 1.62 1.69 1.71 1.69
0.17 0.15 0.12 0.09 0.10 0.15 0.16 0.13 0.12 0.12 0.12 0.16 0.20 0.22 0.27 0.29 0.38 0.48 0.52 0.51 0.51 0.52 0.59 0.64 0.71 0.74 0.75 0.71 0.72 0.82 0.87 0.93 1.00 1.08 1.18 1.25 1.38 1.51 1.62 1.76 1.83 1.88 1.93 1.93
0.28 0.29 0.22 0.16 0.15 0.18 0.21 0.19 0.19 0.21 0.26 0.27 0.35 0.40 0.40 0.39 0.40 0.50 0.57 0.56 0.62 0.62 0.66 0.74 0.81 0.86 0.80 0.84 0.91 0.99 1.00 1.07 1.13 1.18 1.35 1.47 1.53 1.65 1.71 1.76 1.89 1.99 2.05 2.01
0.32 0.36 0.33 0.25 0.27 0.29 0.29 0.29 0.24 0.27 0.52 0.48 0.51 0.55 0.55 0.58 0.73 0.83 0.84 0.75 0.71 0.72 0.75 0.82 0.82 0.82 0.90 0.93 0.99 1.08 1.15 1.29 1.37 1.40 1.48 1.58 1.71 1.76 1.75 1.74 1.79 1.83 1.89 1.92
0.37 0.43 0.41 0.37 0.36 0.35 0.33 0.33 0.33 0.59 0.87 0.87 0.85 0.81 0.72 0.81 0.88 0.82 0.76 0.83 0.80 0.83 0.91 0.89 0.88 0.92 0.94 0.93 0.98 1.11 1.25 1.37 1.44 1.47 1.50 1.59 1.69 1.84 1.89 1.90 1.81 1.73 1.73 1.76
0.58 0.62 0.60 0.58 0.67 0.70 0.48 0.49 0.70 0.90 0.87 1.05 0.98 0.87 0.86 0.84 0.80 0.72 0.73 0.86 0.95 0.99 1.05 1.04 1.01 0.98 0.98 1.02 1.08 1.19 1.32 1.40 1.46 1.47 1.53 1.60 1.63 1.63 1.65 1.81 1.83 1.78 1.76 1.75
0.76 0.81 0.84 0.80 0.89 0.80 0.67 0.68 0.76 0.73 0.75 0.89 0.90 0.81 0.80 0.77 0.74 0.69 0.73 0.80 0.83 0.88 0.96 0.99 1.02 1.04 1.08 1.14 1.23 1.35 1.41 1.47 1.47 1.55 1.67 1.74 1.71 1.70 1.69 1.69 1.75 1.71 1.63 1.53
0.94 0.74 0.88 1.08 1.09 0.95 0.81 0.70 0.69 0.70 0.72 0.75 0.83 0.88 0.86 0.81 0.78 0.78 0.78 0.80 0.89 0.94 0.98 1.04 1.02 1.05 1.18 1.30 1.42 1.45 1.41 1.49 1.64 1.69 1.69 1.69 1.70 1.64 1.66 1.75 1.67 1.61 1.59 1.50
1.06 0.99 1.15 1.52 1.58 1.36 1.18 1.00 0.89 0.84 0.82 0.87 0.96 0.99 1.04 1.04 1.00 0.96 0.90 0.86 0.87 0.92 0.93 0.99 1.07 1.11 1.20 1.27 1.37 1.48 1.50 1.55 1.63 1.57 1.47 1.47 1.50 1.46 1.43 1.52 1.58 1.46 1.40 1.43
1.10 1.27 1.54 1.85 1.70 1.63 1.49 1.22 1.04 1.01 1.06 1.01 1.05 1.07 1.06 1.04 1.02 1.01 0.99 0.88 0.81 0.82 0.90 0.96 1.02 1.10 1.18 1.25 1.30 1.34 1.39 1.48 1.57 1.60 1.52 1.46 1.41 1.42 1.46 1.44 1.42 1.37 1.20 1.19